ESSVESSB

Guest
Details From ESSV - Visby
To ESSB - BROMMA
Flight Number -
Tags generated
Created
Modified
Stats Distance 103 nm / 190 km
Max Altitude 0 ft / 0 m
Waypoints 3
Social Downloads 2
Likes 0
Share VATSIM

Download

Looking for another format? Having issues loading an existing format? Contact us
Advertisement - Login to hide

Notes

Basic altitude profile: - Ascent Rate: 2500ft/min - Ascent Speed: 250kts - Cruise Altitude: 35000ft - Cruise Speed: 420kts - Descent Rate: 1500ft/min - Descent Speed: 250kts Options: - Use NATs: yes - Use PACOTS: yes - Use low airways: yes - Use high airways: yes

Route

ESSV VSB ESSB

ID Type Via Altitude Latitude Longitude Leg Dist Tot Dist Heading (true) Name
O ESSV APT - 0 ft / 0 m 57.65641˚ 18.34245˚ - 0 nm - Visby
VSB VOR - 0 ft / 0 m 57.65953˚ 18.34686˚ 0 nm 0 nm 37° / 37° VISBY VOR-DME
O ESSB APT - 0 ft / 0 m 59.35439˚ 17.94160˚ 102 nm 102 nm 353° / 353° BROMMA

Altitude Profile

Advertisement - Login to hide

ESSV

Details ICAO ESSV (VBY)
Name Visby
Region Sweden
Timezone Europe/Stockholm (UTC+2.0)
Stats Elevation 164 ft / 50 m (AMSL)
Location 57.656405° 18.342448°
Runways 2
Magnetic Variation 5.979° E

METAR

ESSV 231120Z 27008KT CAVOK 18/09 Q1024

Decode

TAF

Not found

Departure Runways

ID Width Length Bearing (true) Bearing (mag) Surface Threshold Offset Overrun Length
03 148 ft / 45 m 6,552 ft / 1,997 m 20.95° 14.97° Asphalt 0 ft / 0 m 0 ft / 0 m
10 131 ft / 40 m 3,599 ft / 1,097 m 101.41° 95.43° Grass 0 ft / 0 m 0 ft / 0 m
21 148 ft / 45 m 6,552 ft / 1,997 m 200.96° 194.98° Asphalt 0 ft / 0 m 0 ft / 0 m
28 131 ft / 40 m 3,599 ft / 1,097 m 281.43° 275.45° Grass 0 ft / 0 m 0 ft / 0 m

ESSB

Details ICAO ESSB (BMA)
Name BROMMA
Region Sweden
Timezone Europe/Stockholm (UTC+2.0)
Stats Elevation 47 ft / 14 m (AMSL)
Location 59.354389° 17.941604°
Runways 1
Magnetic Variation 6.120° E

METAR

ESSB 231120Z 33010KT CAVOK 20/08 Q1024

Decode

TAF

Not found

Destination Runways

ID Width Length Bearing (true) Bearing (mag) Surface Threshold Offset Overrun Length
12 148 ft / 45 m 6,201 ft / 1,890 m 125.06° 118.94° Asphalt 381 ft / 116 m 0 ft / 0 m
30 148 ft / 45 m 6,201 ft / 1,890 m 305.09° 298.97° Asphalt 361 ft / 110 m 0 ft / 0 m

Approach Navaids

Runway Type Ident Frequency Range Bearing (true) Bearing (mag) Slope Elevation
12 Localiser SB 110.30 MHz 18 nm / 33 km 125.06° 118.94° - 40 ft / 12 m (AMSL)
12 Glidescope SB 110.30 MHz 10 nm / 19 km 125.07° 118.95° 3.50° 45 ft / 14 m (AMSL)
30 Localiser SBA 109.70 MHz 18 nm / 33 km 305.04° 298.92° - 45 ft / 14 m (AMSL)
30 Glidescope SBA 109.70 MHz 10 nm / 19 km 305.07° 298.95° 3.50° 40 ft / 12 m (AMSL)

Popular Alternatives